Weather in Naujoji Akmenė

Lithuania     56°19′19″N   22°52′39″E
temp.,
°C
wind,
m/s
gust,
m/s
humid.,
%
clouds,
%
prec.,
mm/h
press.,
hPa
HPBL,
m
27 february, sat
sat2723:00+2w510920 0.0 1016260
02:00+3wnw6139044 0.0 1017487
05:00+1nw6148919 0.0 1018515
08:00+1nw6138910 0.0 1021497
11:00+4nw712750 0.0 1023851
14:00+6nnw710640 0.0 10251110
17:00+4nw511680 0.0 1026630
20:00+1nw410860 0.0 1027302
28 february, sun
sun2823:000wnw599267 0.0 1028279
02:00+1wnw498883 0.0 1028279
05:00+2w6128495 0.0 1026337
08:00+2wnw7158198 0.0 1025415
11:00+6nw6137696 0.0 1024970
14:00+4nw6128395 0.3 1025653
17:00+5nw598487 0.0 1025466
20:00+2nw499246 0.0 1027252
1 march, mon
mon123:00+1nw36940 0.0 1028142
02:00+1wnw36940 0.0 1030138
05:00+1wnw48940 0.0 1029170
08:00+1w48930 0.0 1030174
11:00+6w59740 0.0 1029394
14:00+10wsw612635 0.0 1027622
17:00+7w7147038 0.0 1026609
20:00+3w5119030 0.0 1026340
2 march, tue
tue223:00+1wnw489310 0.0 1027224
02:00+1w36925 0.0 1028112
05:00+1w368942 0.0 1027125
08:00+1w488727 0.0 1027189
11:00+6w57700 0.0 1027263
14:00+9wnw58624 0.0 1027580
17:00+8wnw47704 0.0 1027288
20:00+4wnw35872 0.0 1027105
3 march, wed
wed323:00+2wnw33890 0.0 102867
02:00+1wnw33900 0.0 102857
05:00+1w33900 0.0 102857
08:00+1w35911 0.0 1028101
11:00+5w34780 0.0 1027270
14:00+8sw23670 0.0 1026508
17:00+5sw46780 0.0 1024430
20:00+3wsw478624 0.0 1022508